This demonstration page uses our WeatherBlox Daily Observations layout. Learn more.

Hourly Observations for February 17, 2018

Temp ( °F °C ) Dew Point ( °F °C ) Humidity (%) Winds ( mph kmh ) Pressure ( in mb ) Visibility ( mi km ) Precip ( " mm )
12:15 am 00:15 Clear 28 -2.1 19 -7.2 68 68 S 12 19 30.03 1017 10 16.0934 0 0
12:35 am 00:35 Clear 28 -2.1 19 -7.1 69 69 S 12 19 30.03 1017 10 16.0934 0 0
12:55 am 00:55 Clear 28 -2.2 19 -7.1 69 69 S 10 17 30.03 1017 10 16.0934 0 0
1:15 am 01:15 Clear 28 -2.3 19 -7.2 69 69 S 8 13 30.03 1017 10 16.0934 0 0
1:35 am 01:35 Clear 28 -2.5 19 -7.5 69 69 S 10 17 30.03 1017 10 16.0934 0 0
1:55 am 01:55 Clear 27 -3 19 -7.5 71 71 SW 6 9 30.03 1017 10 16.0934 0 0
2:15 am 02:15 Clear 26 -3.2 19 -7.5 72 72 SSW 9 15 30.03 1017 10 16.0934 0 0
2:35 am 02:35 Clear 26 -3.1 19 -7.5 72 72 S 8 13 30 1016 10 16.0934 0 0
2:55 am 02:55 Clear 27 -3 19 -7.3 73 73 SSW 10 17 30 1016 10 16.0934 0 0
3:15 am 03:15 Clear 27 -3 19 -7.5 71 71 S 9 15 29.97 1015 10 16.0934 0 0
3:35 am 03:35 Clear 26 -3.1 19 -7.5 72 72 SSW 9 15 30 1016 10 16.0934 0 0
3:55 am 03:55 Clear 26 -3.5 19 -7.5 74 74 SSW 13 20 29.97 1015 10 16.0934 0 0
4:15 am 04:15 Clear 26 -3.6 18 -7.6 74 74 SSW 13 20 29.97 1015 10 16.0934 0 0
4:35 am 04:35 Clear 25 -4 18 -7.7 76 76 SW 12 19 29.97 1015 10 16.0934 0 0
4:55 am 04:55 Clear 25 -4.1 19 -7.5 77 77 SW 13 20 29.97 1015 10 16.0934 0 0
5:15 am 05:15 Clear 25 -3.8 18 -7.6 75 75 SW 12 19 30 1016 10 16.0934 0 0
5:35 am 05:35 Clear 25 -3.8 18 -7.7 75 75 WSW 10 17 30 1016 10 16.0934 0 0
5:55 am 05:55 Clear 26 -3.6 19 -7.4 75 75 WSW 10 17 30.03 1017 10 16.0934 0 0
6:15 am 06:15 Clear 25 -4 18 -7.6 76 76 W 8 13 30.03 1017 10 16.0934 0 0
6:35 am 06:35 Clear 24 -4.7 18 -7.6 80 80 W 10 17 30.06 1018 10 16.0934 0 0
6:55 am 06:55 Clear 24 -4.6 19 -7.3 82 82 W 9 15 30.09 1019 10 16.0934 0 0
7:15 am 07:15 Clear 24 -4.2 20 -6.9 82 82 WNW 7 11 30.09 1019 10 16.0934 0 0
7:35 am 07:35 Sunny 24 -4.7 19 -7.2 83 83 WNW 6 9 30.12 1020 10 16.0934 0 0
7:55 am 07:55 Sunny 24 -4.4 20 -6.6 85 85 WNW 8 13 30.12 1020 10 16.0934 0 0
8:15 am 08:15 Sunny 26 -3.1 21 -5.9 81 81 WNW 8 13 30.09 1019 10 16.0934 0 0
8:35 am 08:35 Sunny 29 -1.7 24 -4.7 80 80 WNW 7 11 30.12 1020 10 16.0934 0 0
8:55 am 08:55 Sunny 32 0 25 -4 75 75 NW 9 15 30.09 1019 10 16.0934 0 0
9:15 am 09:15 Sunny 32 0.2 25 -3.9 74 74 NW 10 17 30.09 1019 10 16.0934 0 0
9:35 am 09:35 Sunny 34 1.3 26 -3.6 70 70 NW 13 20 30.09 1019 10 16.0934 0 0
9:55 am 09:55 Sunny 36 2.2 26 -3.1 68 68 WNW 13 20 30.12 1020 10 16.0934 0 0
10:15 am 10:15 Sunny 37 3 26 -3.4 63 63 WNW 12 19 30.09 1019 10 16.0934 0 0
10:35 am 10:35 Sunny 40 4.5 26 -3.5 56 56 NW 12 19 30.12 1020 10 16.0934 0 0
10:55 am 10:55 Sunny 41 5.2 25 -4.1 51 51 NW 12 19 30.12 1020 10 16.0934 0 0
11:15 am 11:15 Sunny 43 6 25 -4.1 49 49 WNW 9 15 30.12 1020 10 16.0934 0 0
11:35 am 11:35 Sunny 44 6.8 25 -4 46 46 WNW 9 15 30.09 1019 10 16.0934 0 0
11:55 am 11:55 Sunny 45 7.3 23 -5 42 42 WNW 9 15 30.12 1020 10 16.0934 0 0
12:15 pm 12:15 Sunny 46 7.5 23 -5 41 41 WNW 14 22 30.12 1020 10 16.0934 0 0
12:35 pm 12:35 Sunny 46 7.9 25 -4 43 43 NW 15 24 30.12 1020 10 16.0934 0 0
12:55 pm 12:55 Sunny 47 8.3 24 -4.2 41 41 NW 13 20 30.09 1019 10 16.0934 0 0
1:15 pm 13:15 Sunny 47 8.5 24 -4.2 41 41 NW 20 31 30.12 1020 10 16.0934 0 0
1:35 pm 13:35 Sunny 47 8.6 24 -4.3 40 40 WNW 14 22 30.09 1019 10 16.0934 0 0
1:55 pm 13:55 Sunny 47 8.5 23 -5.2 38 38 WNW 15 24 30.09 1019 10 16.0934 0 0
2:15 pm 14:15 Sunny 48 9.1 24 -4.2 39 39 WNW 13 20 30.09 1019 10 16.0934 0 0
2:35 pm 14:35 Sunny 48 8.9 23 -4.8 38 38 NW 17 28 30.09 1019 10 16.0934 0 0
2:55 pm 14:55 Sunny 48 9 24 -4.6 38 38 NW 14 22 30.09 1019 10 16.0934 0 0
3:15 pm 15:15 Sunny 48 9 23 -4.9 37 37 NW 13 20 30.09 1019 10 16.0934 0 0
3:35 pm 15:35 Sunny 48 9 24 -4.7 38 38 WNW 10 17 30.09 1019 10 16.0934 0 0
3:55 pm 15:55 Sunny 48 9.1 23 -4.9 37 37 NW 8 13 30.09 1019 10 16.0934 0 0
4:15 pm 16:15 Sunny 48 8.9 24 -4.6 38 38 NNW 9 15 30.09 1019 10 16.0934 0 0
4:35 pm 16:35 Sunny 47 8.6 23 -4.8 39 39 NNW 5 7 30.09 1019 10 16.0934 0 0
4:55 pm 16:55 Sunny 47 8.5 24 -4.5 40 40 Calm 30.09 1019 10 16.0934 0 0
5:15 pm 17:15 Sunny 47 8.3 24 -4.6 40 40 Calm 30.09 1019 10 16.0934 0 0
5:35 pm 17:35 Sunny 44 6.5 25 -3.8 48 48 NNE 5 7 30.09 1019 10 16.0934 0 0
5:55 pm 17:55 Sunny 42 5.3 25 -3.8 52 52 ENE 6 9 30.12 1020 10 16.0934 0 0
6:15 pm 18:15 Clear 39 4.1 24 -4.2 55 55 E 5 7 30.12 1020 10 16.0934 0 0
6:35 pm 18:35 Clear 36 2.2 24 -4.2 63 63 ESE 5 7 30.15 1021 10 16.0934 0 0
6:55 pm 18:55 Clear 30 -1 22 -5.7 71 71 SE 6 9 30.18 1022 10 16.0934 0 0
7:15 pm 19:15 Clear 29 -1.5 22 -5.3 76 76 SSE 8 13 30.18 1022 10 16.0934 0 0
7:35 pm 19:35 Clear 33 0.5 23 -5 67 67 SSE 8 13 30.15 1021 10 16.0934 0 0
7:55 pm 19:55 Clear 31 -0.8 23 -5.1 73 73 SSE 8 13 30.18 1022 10 16.0934 0 0
8:15 pm 20:15 Clear 30 -1 23 -5.1 74 74 SE 8 13 30.18 1022 10 16.0934 0 0
8:35 pm 20:35 Clear 29 -1.7 22 -5.3 77 77 SE 10 17 30.15 1021 10 16.0934 0 0
8:55 pm 20:55 Clear 31 -0.7 23 -5 73 73 SSE 9 15 30.15 1021 10 16.0934 0 0
9:15 pm 21:15 Clear 30 -0.9 22 -5.3 72 72 SSE 9 15 30.15 1021 10 16.0934 0 0
9:35 pm 21:35 Clear 31 -0.5 23 -5 72 72 SSE 9 15 30.12 1020 10 16.0934 0 0
9:55 pm 21:55 Clear 33 0.5 24 -4.6 69 69 SSE 12 19 30.09 1019 10 16.0934 0 0
10:15 pm 22:15 Clear 35 1.4 23 -4.8 64 64 S 12 19 30.09 1019 10 16.0934 0 0
10:35 pm 22:35 Clear 33 0.7 23 -5 66 66 S 14 22 30.06 1018 10 16.0934 0 0
10:55 pm 22:55 Clear 34 1.2 23 -5.2 63 63 S 14 22 30.06 1018 10 16.0934 0 0
11:15 pm 23:15 Clear 34 1.3 22 -5.5 61 61 SSE 15 24 30.06 1018 10 16.0934 0 0
11:35 pm 23:35 Clear 33 0.6 22 -5.5 64 64 SSE 16 26 30.03 1017 10 16.0934 0 0
11:55 pm 23:55 Clear 33 0.5 22 -5.6 64 64 SSE 14 22 30.03 1017 10 16.0934 0 0

Powered by AerisWeather